Location: Friaudour
(46.0460°N, 1.2873°E)
Time: 21:10:16
(UTC+00:00)

Cosmos 2233 Rocket - Pass Details

Date: 14 July 2020
Orbit: 954 x 990 km, 82.9° (Epoch: 14 August)

Event Time Altitude Azimuth Distance (km) Brightness Sun altitude
Exits shadow 02:39:39 17° 201° (SSW) 2,247 5.3 -13.4°
Maximum altitude 02:44:33 67° 281° (W) 1,054 4.1 -12.8°
Drops below altitude 10° 02:50:48 10° 4° (N) 2,741 7.2 -12.1°
Sets 02:53:23 0° 7° (N) 3,698 8.1 -11.9°
